Regional Weather Roundup
Issued by NWS

Home | Current Version | Previous Version | Text Only | Print | Product List | Glossary On
Versions: 1 2 3 4 5 6 7 8 9 10 11 12 13 14 15 16 17 18 19 20 21 22 23 24 25 26 27 28 29 30 31 32 33 34 35 36 37 38 39 40 41 42 43 44 45 46 47 48 49 50
000
ASCA42 TJSJ 022110
RWRPR
PUERTO RICO/U.S. VIRGIN ISLANDS HOURLY WEATHER ROUNDUP
NATIONAL WEATHER SERVICE SAN JUAN PR
500 PM AST SUN AUG 02 2015

PRZ001-004-022200-
PUERTO RICO

CITY           SKY/WX    TMP DP  RH WIND       PRES   REMARKS
SAN JUAN LMM   MOSUNNY   88  75  66 E16       29.92F HX  97
PONCE          MOSUNNY   88  77  70 E12G17    29.88F HX 100
AGUADILLA      MOSUNNY   81  73  78 E8        29.96S
$$

PRZ006-007-022200-
U.S. VIRGIN ISLANDS

CITY           SKY/WX    TMP DP  RH WIND       PRES   REMARKS
CHARLOTTE AMA  SUNNY     88  75  66 SE14      29.94S HX  97
CHRISTIANSTED  MOSUNNY   86  75  70 E15       29.95S HX  95
$$

HOURLY WEATHER ROUNDUP FOR THE NEWS MEDIA

CITY           SKY/WX    TMP DP  RH WIND       PRES   REMARKS
ORLANDO        CLOUDY    76  74  93 S9        29.95R
NEW YORK       MOSUNNY   85  62  46 S14       29.90F
NEWARK         PTSUNNY   86  59  39 S10       29.87F
CHICAGO        PTSUNNY   87  72  60 SW18G25   29.71F HX  93
HARTFORD       SUNNY     82  57  42 SW15      29.89R
BOSTON         MOSUNNY   86  51  29 W18G26    29.86F
DALLAS         MOSUNNY   97  54  23 VRB6      29.90F HX  95
PHILADELPHIA   PTSUNNY   89  50  26 SW10      29.91F
LOS ANGELES    MOSUNNY   76  65  68 W13       29.90F
WASHINGTON DC  PTSUNNY   86  55  34 CALM      29.94S


USA.gov is the U.S. government's official web portal to all federal, state and local government web resources and services.